| time (UTC) | temp C | wind direction | speed KPH | gust KPH | rain 1hr cm | rain 24hr cm | rain mn cm | humidity % | barometer mb |
| 20260903144513 | 10 | 142 | 0.0 | 0.0 | 0.00 | 0.00 | 0.53 | 94 | 1017.6 |
| 20260903143048 | 10 | 81 | 0.0 | 0.0 | 0.00 | 0.00 | 0.46 | 94 | 1017.4 |
| 20260903141550 | 10 | 66 | 0.0 | 0.0 | 0.00 | 0.00 | 0.43 | 94 | 1017.3 |
| 20260903140037 | 10 | 76 | 0.0 | 0.0 | 0.00 | 0.00 | 0.41 | 94 | 1017.0 |
| 20260903134601 | 10 | 56 | 0.0 | 0.0 | 0.00 | 0.00 | 0.41 | 94 | 1017.0 |
| 20260903133109 | 10 | 57 | 0.0 | 0.0 | 0.00 | 0.00 | 0.41 | 94 | 1016.6 |
| 20260903133001 | 10 | 59 | 0.0 | 0.0 | 0.00 | 0.00 | 0.41 | 94 | 1016.6 |
| 20260903131531 | 10 | 78 | 0.0 | 0.0 | 0.00 | 0.00 | 0.41 | 93 | 1016.6 |
| 20260903130125 | 10 | 78 | 0.0 | 0.0 | 0.00 | 0.00 | 0.41 | 93 | 1016.5 |
| 20260903124531 | 10 | 67 | 0.0 | 0.0 | 0.00 | 0.00 | 0.41 | 93 | 1016.4 |
| 20260903123054 | 10 | 69 | 0.0 | 0.0 | 0.00 | 0.00 | 0.41 | 93 | 1016.2 |
| 20260903121556 | 10 | 75 | 0.0 | 0.0 | 0.00 | 0.00 | 0.41 | 93 | 1016.1 |
| 20260903120005 | 10 | 63 | 0.0 | 0.0 | 0.00 | 0.00 | 0.41 | 93 | 1016.0 |
| 20260903114509 | 10 | 58 | 0.0 | 0.0 | 0.00 | 0.00 | 0.41 | 92 | 1016.1 |
| 20260903113057 | 10 | 58 | 0.0 | 0.0 | 0.00 | 0.00 | 0.41 | 93 | 1016.1 |
| 20260903111532 | 10 | 61 | 0.0 | 0.0 | 0.00 | 0.00 | 0.41 | 92 | 1016.0 |
| 20260903110020 | 10 | 59 | 0.0 | 0.0 | 0.00 | 0.00 | 0.41 | 92 | 1015.9 |
| 20260903104533 | 10 | 28 | 0.0 | 0.0 | 0.00 | 0.00 | 0.38 | 92 | 1016.0 |
| 20260903103026 | 10 | 27 | 0.0 | 0.0 | 0.00 | 0.00 | 0.38 | 91 | 1016.0 |
| 20260903101553 | 10 | 27 | 0.0 | 0.0 | 0.00 | 0.00 | 0.33 | 91 | 1016.1 |
| 20260903100042 | 10 | 28 | 0.0 | 0.0 | 0.00 | 0.00 | 0.30 | 91 | 1015.8 |
| 20260903094518 | 11 | 27 | 0.0 | 0.0 | 0.00 | 0.00 | 0.28 | 91 | 1015.7 |
| 20260903093023 | 11 | 28 | 0.0 | 0.0 | 0.00 | 0.00 | 0.25 | 90 | 1015.7 |
| 20260903091549 | 11 | 27 | 0.0 | 0.0 | 0.00 | 0.00 | 0.23 | 90 | 1015.6 |
| 20260903090021 | 11 | 68 | 0.0 | 0.0 | 0.00 | 0.00 | 0.20 | 90 | 1015.4 |
| 20260903084548 | 11 | 24 | 0.0 | 0.0 | 0.00 | 0.00 | 0.18 | 89 | 1015.6 |
| 20260903083101 | 11 | 22 | 0.0 | 0.0 | 0.00 | 0.00 | 0.13 | 88 | 1015.6 |
| 20260903081529 | 11 | 76 | 0.0 | 0.0 | 0.00 | 0.00 | 0.10 | 87 | 1015.7 |
| 20260903080036 | 11 | 60 | 1.6 | 0.0 | 0.00 | 0.00 | 0.08 | 87 | 1015.3 |
| 20260903074542 | 12 | 60 | 0.0 | 0.0 | 0.00 | 0.00 | 0.08 | 86 | 1015.2 |
| 20260903073040 | 12 | 69 | 1.6 | 0.0 | 0.00 | 0.00 | 0.05 | 84 | 1015.1 |
| 20260903071508 | 12 | 69 | 0.0 | 0.0 | 0.00 | 0.00 | 0.03 | 82 | 1015.1 |
| 20260903070019 | 13 | 45 | 0.0 | 0.0 | 0.00 | 0.00 | 0.00 | 78 | 1014.9 |
| 20260903064545 | 13 | 70 | 0.0 | 0.0 | 0.00 | 0.00 | 0.00 | 74 | 1015.0 |
| 20260903063055 | 13 | 72 | 0.0 | 0.0 | 0.00 | 0.00 | 0.00 | 70 | 1014.7 |
| 20260903061552 | 13 | 78 | 0.0 | 0.0 | 0.00 | 0.00 | 0.00 | 70 | 1014.8 |
| 20260903060055 | 13 | 71 | 0.0 | 0.0 | 0.00 | 0.00 | 0.00 | 69 | 1014.7 |
| 20260903054540 | 13 | 64 | 1.6 | 0.0 | 0.00 | 0.00 | 0.00 | 69 | 1014.7 |
| 20260903053040 | 14 | 63 | 0.0 | 0.0 | 0.00 | 0.00 | 0.00 | 70 | 1014.4 |
| 20260903051541 | 15 | 38 | 1.6 | 0.0 | 0.00 | 0.00 | 0.00 | 68 | 1014.3 |
| 20260903050037 | 15 | 17 | 1.6 | 0.0 | 0.00 | 0.00 | 0.00 | 65 | 1014.1 |
| 20260903044507 | 16 | 104 | 0.0 | 0.0 | 0.00 | 0.00 | 0.00 | 64 | 1013.9 |
| 20260903043022 | 17 | 289 | 0.0 | 0.0 | 0.00 | 0.00 | 0.00 | 60 | 1013.6 |
| 20260903041541 | 17 | 284 | 1.6 | 0.0 | 0.00 | 0.00 | 0.00 | 57 | 1013.5 |
| 20260903040058 | 18 | 303 | 1.6 | 0.0 | 0.00 | 0.00 | 0.00 | 48 | 1013.5 |
| 20260903034512 | 19 | 225 | 3.2 | 0.0 | 0.00 | 0.00 | 0.00 | 37 | 1013.2 |
| 20260903033042 | 19 | 231 | 3.2 | 0.0 | 0.00 | 0.00 | 0.00 | 37 | 1013.1 |
| 20260903031523 | 19 | 190 | 1.6 | 0.0 | 0.00 | 0.00 | 0.00 | 37 | 1012.8 |
| 20260903030036 | 19 | 199 | 3.2 | 0.0 | 0.00 | 0.00 | 0.00 | 37 | 1012.5 |
| 20260903024536 | 19 | 187 | 3.2 | 0.0 | 0.00 | 0.00 | 0.00 | 36 | 1012.4 |
| 20260903023008 | 19 | 210 | 3.2 | 0.0 | 0.00 | 0.00 | 0.00 | 36 | 1012.3 |
| 20260903021536 | 20 | 150 | 1.6 | 0.0 | 0.00 | 0.00 | 0.00 | 36 | 1012.3 |
| 20260903020007 | 20 | 178 | 3.2 | 0.0 | 0.00 | 0.00 | 0.00 | 35 | 1012.4 |
| 20260903014602 | 20 | 239 | 1.6 | 0.0 | 0.00 | 0.00 | 0.00 | 34 | 1012.4 |
| 20260903013050 | 20 | 193 | 1.6 | 0.0 | 0.00 | 0.00 | 0.00 | 34 | 1012.4 |
| 20260903011552 | 20 | 217 | 3.2 | 0.0 | 0.00 | 0.00 | 0.00 | 34 | 1012.4 |
| 20260903010040 | 20 | 227 | 3.2 | 0.0 | 0.00 | 0.00 | 0.00 | 33 | 1012.2 |
| 20260903004533 | 21 | 224 | 4.8 | 0.0 | 0.00 | 0.00 | 0.00 | 32 | 1012.2 |
| 20260903003046 | 21 | 186 | 3.2 | 0.0 | 0.00 | 0.00 | 0.00 | 31 | 1012.0 |
| 20260903001518 | 21 | 177 | 4.8 | 0.0 | 0.00 | 0.00 | 0.00 | 33 | 1012.1 |
| 20260903000010 | 20 | 250 | 4.8 | 0.0 | 0.00 | 0.00 | 0.00 | 35 | 1012.0 |